User: anonymous   Login
Location: Zapote
(9.9191°N, 84.0597°W)
Time: 10:38:58
(UTC-06:00)
Language:

Explorer 11/Cluster Stage 4 - Orbit

View from above orbital plane
View from above orbital plane
View from above satellite
View from above satellite

Ground track
Ground track

The orbit data is extracted from the following two-line orbital elements,

1   107U 61013A   21058.05895341  .00000704  00000-0  72298-4 0  9993
2   107  28.7901 183.3539 0546060 268.1647  85.6333 14.09143723  1726
Epoch (UTC): 27 February 2021 01:24:53
Eccentricity: 0.0546060
inclination: 28.7901°
perigee height: 467 km
apogee height: 1257 km
right ascension of ascending node: 183.3539°
argument of perigee: 268.1647°
revolutions per day: 14.09143723
mean anomaly at epoch: 85.6333°
orbit number at epoch: 172

The dashed part of the orbit path shows where the satellite is in the earth's shadow,  

DLR